www.pogodaiklimat.ru

Погода и климат >> Архив погоды >> Аргентина >> Ла-Риоха


ПОГОДА в Ла-Риохе

  • Прогноз погоды в Ла-Риохе
  • Монитор погоды в Ла-Риохе

АРХИВ ПОГОДЫ в Ла-Риохе

Время (UTC), дата Ветер
(напр.,м/с)
 
Видим.   Явления Облачность Т
(С)
Тd
(С)
f
(%)
Тe
(С)
Тes
(С)
Комфортность P
(гПа)
Po
(гПа)
Тmin
(С)
Tmax
(С)
R
(мм)
R24
(мм)
S
(см)
09 13.09 Ю 5 20 км 4/0
[Ac und Ci fib]
+9.3 +1.6 59 +6 +6 1016.5 966.8
12 13.09 Ю 4 20 км ясно +11.1 +2.3 55 +9 +11 1018.4 967.8 +9.0 +14.2
15 13.09 Ю 3 20 км ясно +17.6 +5.7 46 +18 +30 опасность
простуды
1017.0 966.9
18 13.09 ЮВ 3 20 км ясно +21.6 +6.6 38 +22 +35 комфорт 1012.7 962.9
21 13.09 С 2 20 км ясно +24.0 +6.3 32 +24 +26 комфорт 1010.3 960.8
00 14.09 штиль 0 20 км ясно +17.2 +10.1 63 +17 +17 1012.6 962.6 +8.9 +24.6
03 14.09 Ю 2 20 км ясно +12.1 +7.3 72 +12 +12 1013.2 963.3
06 14.09 ЮЗ 4 20 км ясно +11.9 +6.6 70 +10 +10 1010.5 961.0
09 14.09 ЮЗ 4 20 км ясно +11.6 +2.5 54 +10 +10 1009.3 960.0
12 14.09 Ю 3 20 км ясно +12.8 +4.3 56 +12 +14 1010.7 960.9 +7.9 +17.2
15 14.09 ЮВ 3 20 км ясно +20.0 +7.1 43 +21 +33 комфорт 1009.4 959.8
18 14.09 Ю 2 20 км ясно +25.0 +9.4 37 +26 +39 жарко 1004.6 955.7
00 15.09 З 3 20 км ясно +17.3 +10.0 62 +17 +17 1003.9 954.7 +12.8 +27.3
03 15.09 ЮЗ 3 20 км ясно +14.5 +8.4 67 +14 +14 1003.0 954.2
06 15.09 СЗ 1 20 км ясно +12.8 +7.7 71 +13 +13 1001.4 953.0
09 15.09 ЮЗ 3 20 км ясно +12.5 +6.4 66 +11 +11 1001.1 952.8
12 15.09 ЮЗ 3 20 км 3/0
[Ci sp]
+17.3 +8.9 58 +17 +19 1002.2 953.2 +9.9 +17.5
15 15.09 ЮВ 2 20 км 4/0
[Ci sp]
+24.8 +10.5 41 +26 +39 жарко 1001.5 952.9
18 15.09 В 3 20 км 4/0
[Ci sp]
+30.6 +9.7 27 +30 +41 жарко 997.1 949.0
21 15.09 ЮЗ 3 20 км 3/0
[Ac As]
+32.6 +10.4 26 +32 +34 жарко 996.2 948.2
00 16.09 З 3 20 км ясно +22.5 +9.2 43 +24 +24 комфорт 1002.3 953.7 +9.9 +33.4
03 16.09 ЮЗ 3 20 км ясно +20.8 +8.9 46 +23 +23 комфорт 1005.2 956.9
06 16.09 Ю 3 20 км ясно +20.1 +8.9 48 +22 +22 комфорт 1007.8 959.8
09 16.09 Ю 6 10 км пыль {метель} 9/9 1500 м
[Frnb]
+18.3 +4.6 40 +18 +18 1013.3 965.0
12 16.09 Ю 4 10 км пыльный позёмок 9/9 1500 м
[St]
+14.4 -0.4 36 +13 +14 1022.3 972.5 +13.9 +22.5
15 16.09 Ю 4 15 км осадки на расстоянии 10/10 1500 м
[St]
+14.8 -0.4 35 +14 +14 1024.2 974.2
18 16.09 Ю 2 15 км осадки на расстоянии 10/10 1500 м
[St]
+15.2 +1.5 39 +15 +15 1023.2 973.2
21 16.09 В 1 18 км 10/10 1500 м
[Sc]
+15.4 +5.2 51 +16 +16 1022.4 972.2
00 17.09 З 2 18 км 10/10 1500 м
[Sc]
+13.2 +5.8 61 +13 +13 1024.1 973.4 +13.1 +15.4
03 17.09 З 2 18 км 10/10 1500 м
[Sc]
+12.0 +6.7 70 +11 +11 1022.9 972.2
06 17.09 З 1 18 км 10/10 <50 м
[Sc]
+11.4 +7.8 79 +11 +11 1019.8 969.6
09 17.09 ЮЗ 2 20 км 10/10 1500 м
[Sc]
+13.0 +4.1 55 +13 +13 1017.9 967.6
12 17.09 С 1 15 км дым 9/0
[Ac trans]
+11.6 +4.3 61 +12 +13 1018.2 967.6 +9.5 +13.2
15 17.09 В 3 15 км дым 1/0
[Ac trans]
+18.9 +4.1 38 +19 +30 1014.5 964.6
18 17.09 ЮВ 3 12 км дым ясно +22.6 +6.3 35 +23 +35 комфорт 1009.6 960.2
21 17.09 ЮВ 1 15 км мгла ясно +23.7 +5.0 30 +24 +26 комфорт 1008.0 958.9
00 18.09 З 4 15 км мгла ясно +15.3 +5.1 51 +15 +15 1010.8 961.0 +11.6 +25.0
03 18.09 З 3 15 км мгла ясно +12.5 +5.0 60 +11 +11 1013.0 963.5
06 18.09 З 3 15 км мгла ясно +10.5 +5.4 71 +9 +9 1012.1 962.8
09 18.09 СЗ 3 15 км мгла ясно +9.0 +4.7 74 +7 +7 1012.2 962.8
12 18.09 штиль 0 12 км мгла ясно +15.6 +3.3 44 +16 +19 1013.0 963.2 +7.4 +15.8
15 18.09 СВ 5 12 км мгла ясно +26.2 +7.7 31 +26 +34 жарко 1008.9 959.8
18 18.09 С 3 12 км пыльный позёмок ясно +29.5 +2.1 17 +27 +40 жарко 1003.0 954.4
21 18.09 В 5 12 км пыльный позёмок ясно +1.0 0.0 93 -5 -3 998.5 950.0
00 19.09 З 3 20 км ясно +20.1 +5.1 37 +21 +21 комфорт 999.2 950.4 +7.4 +30.6
03 19.09 З 3 20 км ясно +15.1 +2.6 43 +15 +15 997.9 949.7
09 19.09 ЮЗ 4 20 км ясно +15.2 +2.4 42 +14 +14 996.7 948.8
12 19.09 ЮВ 2 20 км ясно +17.4 +3.8 40 +18 +21 1001.6 952.9 +11.4 +20.3
15 19.09 Ю 4 12 км пыльный позёмок ясно +23.5 +4.0 28 +23 +33 комфорт 1008.1 959.0
18 19.09 ЮЗ 6 12 км пыльный позёмок ясно +25.0 +3.3 24 +24 +29 комфорт 1007.0 958.1
21 19.09 В 5 12 км пыльный позёмок ясно +24.4 +2.1 23 +23 +25 комфорт 1007.7 958.8
00 20.09 Ю 4 12 км пыльный позёмок 3/0
[Ac trans]
+19.6 +2.5 32 +20 +20 1013.6 964.2 +17.4 +26.4
03 20.09 В 3 12 км пыльный позёмок ясно +13.6 +2.1 46 +13 +13 1017.2 967.7
06 20.09 Ю 1 12 км пыльный позёмок ясно +8.4 -0.7 53 +8 +8 1018.3 968.4

 

Местоположение метеостанции Ла-Риоха (Аргентина): широта -29.38 долгота -66.81 высота над уровнем моря 429 м.

В архиве по умолчанию представлена погода в Ла-Риохе за последнюю неделю. Архивные данные за месяц целиком и за предыдущие месяцы, начиная с января 2011 года, Вы можете получить, выбрав интересующий диапазон дат из раскрывающегося списка и нажав кнопку "Ввод!".


*Определитесь, кто Вы:
робот инопланетянин человек

Внимание! Время в таблицах - всемирное. Для получения местного времени необходимо прибавить поправку, которая равна -3 ч.

Смотрите также архив погоды в соседних городах и на ближайших метеорологических станциях:

Погода в Чамикале (Аргентина) (120 км)
Погода в Сан-Фернандо-дель-Валье-де-Катамарке (Аргентина) (134 км)
Погода в Сан-Хуане (Аргентина) (272 км)
Погода в Сантьяго-дель-Эстеро (Аргентина) (304 км)
Погода в Вилла де Мария дель Рио Секо (Аргентина) (308 км)
Погода в Вилла Долорес (Аргентина) (328 км)
Погода в Сан-Мигель-де-Тукумане (Аргентина) (328 км)
Погода в Кордове (Аргентина) (329 км)
Погода в Пиларе (Аргентина) (378 км)
Погода в Викунье (Чили) (383 км)

Пояснения к столбцам:

Ветер - указаны скорость ветра в м/с - средняя за 10 мин, порывы в срок и между сроками (в фигурных скобках) и направление, откуда дует ветер: С - северный, СВ - северо-восточный, В - восточный, ЮВ - юго-восточный, Ю - южный, ЮЗ - юго-западный, З - западный, СЗ - северо-западный.
Видимость - горизонтальная дальность видимости в метрах или километрах. При видимости от 1 до 10 км при отсутствии осадков обычно наблюдается дымка, при ухудшении видимости до 1 км и менее - туман. В сухую погоду видимость может ухудшаться дымом, пылью или мглою.
Явления - указаны атмосферные явления, наблюдавшиеся в срок или в последний час перед сроком; фигурными скобками обозначены явления, наблюдавшиеся между сроками (за 1-3 часа до срока); квадратными скобками обозначены град или гололедные отложения с указанием их диаметра в мм.
Облачность - указаны через наклонную черту общая и нижняя облачность в баллах и высота нижней границы облаков в метрах; квадратными скобками обозначены формы облаков: Ci - перистые, Cs - перисто-слоистые, Cc - перисто-кучевые, Ac - высококучевые, As - высокослоистые, Sc - слоисто-кучевые, Ns - слоисто-дождевые, Cu - кучевые, Cb - кучево-дождевые. Подробнее классификацию облаков см. в Атласе облаков (PDF).
T - Температура воздуха - температура, измеренная на высоте 2 м над землей.
Td - Температура точки росы - температура, при понижении до которой содержащийся в воздухе водяной пар достигнет насыщения.
f - Относительная влажность воздуха - влажноcть воздуха, измеренная на высоте 2 м над землей.
Te - Эффективная температура - температура, которую ощущает одетый по сезону человек в тени. Характеристика душности погоды. При расчете учитывается влияние влажности воздуха и скорости ветра на теплоощущения человека.
Tes - Эффективная температура на солнце - температура, которую ощущает человек, с поправкой на солнечный нагрев. Характеристика знойности погоды. Зависит от высоты солнца над горизонтом, облачности и скорости ветра. Ночью, в пасмурную погоду, а также при ветре 12 м/с и более поправка равна нулю.
P - Атмосферное давление - приведенное к уровню моря атмосферное давление.
Po - Атмосферное давление - измеренное на уровне метеостанции атмосферное давление.
Tmin - Минимальная температура - минимум температуры воздуха на высоте 2 м над землей.
Tmax - Максимальная температура - максимум температуры воздуха на высоте 2 м над землей.
R - Количество осадков - Количество выпавших осадков за период времени, мм. При наведении курсора мыши на число - период времени, за который выпало указанное количество осадков.
R24 - Количество осадков - Количество выпавших осадков за 24 часа, мм.
S - Снежный покров - Высота снежного покрова, см. При наведении курсора мыши на число - состояние снежного покрова и степень покрытия местности в баллах.